Wolke Sonne

Wetter Roßtal

Gehe zu: Ammerndorf

Tageswerte vom Donnerstag, 01.10.2020

Optionen

Tag:
Erweitert:

Alle Werte vom Donnerstag, 01.10.2020

Einen Moment bitte, die Daten werden aufbereitet...

UhrzeitTemperaturFeuchteLuftdruckNiederschlagEvapotranspirationNiederschlag?WindWindböenRegenrateWindrichtungHelligkeitSolarstrahlungUV-IndexSonne?Feinstaub 10µmUhrzeit
Diagramm IconDiagramm IconDiagramm IconDiagramm IconDiagramm IconDiagramm IconDiagramm IconDiagramm IconDiagramm IconDiagramm IconDiagramm IconDiagramm IconDiagramm IconDiagramm IconDiagramm Icon
00:009,4 °C 91 % 1014,2 hPa 0,0 mm 0,0 mm nein 1,6 km/h 3,2 km/h 0,0 mm/h O 0,000 klux 0,0 W/qm 0,0 nein - 00:00
00:059,4 °C 91 % 1014,1 hPa 0,0 mm 0,0 mm nein 1,6 km/h 3,2 km/h 0,0 mm/h O 0,000 klux 0,0 W/qm 0,0 nein - 00:05
00:108,9 °C 91 % 1014,2 hPa 0,0 mm 0,0 mm nein 1,6 km/h 3,2 km/h 0,0 mm/h O 0,000 klux 0,0 W/qm 0,0 nein - 00:10
00:158,9 °C 92 % 1014,2 hPa 0,0 mm 0,0 mm nein 1,6 km/h 3,2 km/h 0,0 mm/h O 0,000 klux 0,0 W/qm 0,0 nein - 00:15
00:208,9 °C 92 % 1014,1 hPa 0,0 mm 0,0 mm nein 1,6 km/h 3,2 km/h 0,0 mm/h O 0,000 klux 0,0 W/qm 0,0 nein - 00:20
00:258,9 °C 92 % 1014,1 hPa 0,0 mm 0,0 mm nein 1,6 km/h 3,2 km/h 0,0 mm/h O 0,000 klux 0,0 W/qm 0,0 nein - 00:25
00:308,9 °C 92 % 1014,1 hPa 0,0 mm 0,0 mm nein 0,0 km/h 1,6 km/h 0,0 mm/h O 0,000 klux 0,0 W/qm 0,0 nein - 00:30
00:358,9 °C 92 % 1014,0 hPa 0,0 mm 0,0 mm nein 0,0 km/h 1,6 km/h 0,0 mm/h O 0,000 klux 0,0 W/qm 0,0 nein - 00:35
00:408,9 °C 92 % 1014,0 hPa 0,0 mm 0,0 mm nein 0,0 km/h 1,6 km/h 0,0 mm/h O 0,000 klux 0,0 W/qm 0,0 nein - 00:40
00:458,9 °C 92 % 1014,0 hPa 0,0 mm 0,0 mm nein 0,0 km/h 0,0 km/h 0,0 mm/h N 0,000 klux 0,0 W/qm 0,0 nein - 00:45
00:508,9 °C 92 % 1014,0 hPa 0,0 mm 0,0 mm nein 0,0 km/h 0,0 km/h 0,0 mm/h N 0,000 klux 0,0 W/qm 0,0 nein - 00:50
00:558,9 °C 92 % 1013,9 hPa 0,0 mm 0,0 mm nein 0,0 km/h 0,0 km/h 0,0 mm/h N 0,000 klux 0,0 W/qm 0,0 nein - 00:55
01:008,9 °C 92 % 1013,8 hPa 0,0 mm 0,0 mm nein 0,0 km/h 1,6 km/h 0,0 mm/h O 0,000 klux 0,0 W/qm 0,0 nein - 01:00
01:058,9 °C 92 % 1013,7 hPa 0,0 mm 0,0 mm nein 1,6 km/h 3,2 km/h 0,0 mm/h O 0,000 klux 0,0 W/qm 0,0 nein - 01:05
01:108,9 °C 92 % 1013,7 hPa 0,0 mm 0,0 mm nein 1,6 km/h 3,2 km/h 0,0 mm/h O 0,000 klux 0,0 W/qm 0,0 nein - 01:10
01:158,3 °C 92 % 1013,7 hPa 0,0 mm 0,0 mm nein 1,6 km/h 1,6 km/h 0,0 mm/h O 0,000 klux 0,0 W/qm 0,0 nein - 01:15
01:208,3 °C 92 % 1013,6 hPa 0,0 mm 0,0 mm nein 1,6 km/h 3,2 km/h 0,0 mm/h O 0,000 klux 0,0 W/qm 0,0 nein - 01:20
01:258,3 °C 92 % 1013,6 hPa 0,0 mm 0,0 mm nein 1,6 km/h 3,2 km/h 0,0 mm/h O 0,000 klux 0,0 W/qm 0,0 nein - 01:25
01:308,3 °C 92 % 1013,5 hPa 0,0 mm 0,0 mm nein 0,0 km/h 1,6 km/h 0,0 mm/h O 0,000 klux 0,0 W/qm 0,0 nein - 01:30
01:358,3 °C 92 % 1013,5 hPa 0,0 mm 0,0 mm nein 1,6 km/h 4,8 km/h 0,0 mm/h O 0,000 klux 0,0 W/qm 0,0 nein - 01:35
01:408,3 °C 92 % 1013,4 hPa 0,0 mm 0,0 mm nein 1,6 km/h 4,8 km/h 0,0 mm/h O 0,000 klux 0,0 W/qm 0,0 nein - 01:40
01:458,3 °C 92 % 1013,3 hPa 0,0 mm 0,0 mm nein 1,6 km/h 3,2 km/h 0,0 mm/h O 0,000 klux 0,0 W/qm 0,0 nein - 01:45
01:508,3 °C 92 % 1013,3 hPa 0,0 mm 0,0 mm nein 1,6 km/h 3,2 km/h 0,0 mm/h O 0,000 klux 0,0 W/qm 0,0 nein - 01:50
01:558,3 °C 92 % 1013,3 hPa 0,0 mm 0,0 mm nein 0,0 km/h 1,6 km/h 0,0 mm/h O 0,000 klux 0,0 W/qm 0,0 nein - 01:55
UhrzeitTemperaturFeuchteLuftdruckNiederschlagEvapotranspirationNiederschlag?WindWindböenRegenrateWindrichtungHelligkeitSolarstrahlungUV-IndexSonne?Feinstaub 10µmUhrzeit
02:008,3 °C 92 % 1013,3 hPa 0,0 mm 0,0 mm nein 1,6 km/h 3,2 km/h 0,0 mm/h O 0,000 klux 0,0 W/qm 0,0 nein - 02:00
02:058,3 °C 92 % 1013,2 hPa 0,0 mm 0,0 mm nein 0,0 km/h 1,6 km/h 0,0 mm/h O 0,000 klux 0,0 W/qm 0,0 nein - 02:05
02:108,3 °C 93 % 1013,2 hPa 0,0 mm 0,0 mm nein 0,0 km/h 1,6 km/h 0,0 mm/h O 0,000 klux 0,0 W/qm 0,0 nein - 02:10
02:158,3 °C 92 % 1013,1 hPa 0,0 mm 0,0 mm nein 0,0 km/h 1,6 km/h 0,0 mm/h O 0,000 klux 0,0 W/qm 0,0 nein - 02:15
02:208,3 °C 92 % 1013,0 hPa 0,0 mm 0,0 mm nein 1,6 km/h 1,6 km/h 0,0 mm/h O 0,000 klux 0,0 W/qm 0,0 nein - 02:20
02:257,8 °C 92 % 1012,9 hPa 0,0 mm 0,0 mm nein 1,6 km/h 3,2 km/h 0,0 mm/h O 0,000 klux 0,0 W/qm 0,0 nein - 02:25
02:307,8 °C 92 % 1012,8 hPa 0,0 mm 0,0 mm nein 1,6 km/h 3,2 km/h 0,0 mm/h O 0,000 klux 0,0 W/qm 0,0 nein - 02:30
02:357,8 °C 93 % 1012,7 hPa 0,0 mm 0,0 mm nein 1,6 km/h 3,2 km/h 0,0 mm/h O 0,000 klux 0,0 W/qm 0,0 nein - 02:35
02:407,8 °C 93 % 1012,7 hPa 0,0 mm 0,0 mm nein 1,6 km/h 3,2 km/h 0,0 mm/h O 0,000 klux 0,0 W/qm 0,0 nein - 02:40
02:457,8 °C 93 % 1012,7 hPa 0,0 mm 0,0 mm nein 1,6 km/h 4,8 km/h 0,0 mm/h OSO 0,000 klux 0,0 W/qm 0,0 nein - 02:45
02:507,8 °C 93 % 1012,6 hPa 0,0 mm 0,0 mm nein 0,0 km/h 1,6 km/h 0,0 mm/h OSO 0,000 klux 0,0 W/qm 0,0 nein - 02:50
02:557,8 °C 92 % 1012,6 hPa 0,0 mm 0,0 mm nein 0,0 km/h 1,6 km/h 0,0 mm/h OSO 0,000 klux 0,0 W/qm 0,0 nein - 02:55
03:007,8 °C 92 % 1012,6 hPa 0,0 mm 0,0 mm nein 1,6 km/h 3,2 km/h 0,0 mm/h OSO 0,000 klux 0,0 W/qm 0,0 nein - 03:00
03:057,8 °C 93 % 1012,5 hPa 0,0 mm 0,0 mm nein 1,6 km/h 3,2 km/h 0,0 mm/h OSO 0,000 klux 0,0 W/qm 0,0 nein - 03:05
03:107,8 °C 93 % 1012,4 hPa 0,0 mm 0,0 mm nein 1,6 km/h 1,6 km/h 0,0 mm/h OSO 0,000 klux 0,0 W/qm 0,0 nein - 03:10
03:157,8 °C 93 % 1012,3 hPa 0,0 mm 0,0 mm nein 1,6 km/h 1,6 km/h 0,0 mm/h OSO 0,000 klux 0,0 W/qm 0,0 nein - 03:15
03:207,8 °C 93 % 1012,4 hPa 0,0 mm 0,0 mm nein 0,0 km/h 1,6 km/h 0,0 mm/h OSO 0,000 klux 0,0 W/qm 0,0 nein - 03:20
03:257,8 °C 93 % 1012,2 hPa 0,0 mm 0,0 mm nein 0,0 km/h 1,6 km/h 0,0 mm/h OSO 0,000 klux 0,0 W/qm 0,0 nein - 03:25
03:307,8 °C 93 % 1012,2 hPa 0,0 mm 0,0 mm nein 0,0 km/h 1,6 km/h 0,0 mm/h OSO 0,000 klux 0,0 W/qm 0,0 nein - 03:30
03:357,2 °C 93 % 1012,3 hPa 0,0 mm 0,0 mm nein 0,0 km/h 1,6 km/h 0,0 mm/h OSO 0,000 klux 0,0 W/qm 0,0 nein - 03:35
03:407,2 °C 93 % 1012,2 hPa 0,0 mm 0,0 mm nein 0,0 km/h 1,6 km/h 0,0 mm/h OSO 0,000 klux 0,0 W/qm 0,0 nein - 03:40
03:457,2 °C 93 % 1012,1 hPa 0,0 mm 0,0 mm nein 0,0 km/h 0,0 km/h 0,0 mm/h N 0,000 klux 0,0 W/qm 0,0 nein - 03:45
03:507,2 °C 93 % 1012,0 hPa 0,0 mm 0,0 mm nein 0,0 km/h 0,0 km/h 0,0 mm/h N 0,000 klux 0,0 W/qm 0,0 nein - 03:50
03:557,2 °C 93 % 1012,0 hPa 0,0 mm 0,0 mm nein 0,0 km/h 0,0 km/h 0,0 mm/h N 0,000 klux 0,0 W/qm 0,0 nein - 03:55
UhrzeitTemperaturFeuchteLuftdruckNiederschlagEvapotranspirationNiederschlag?WindWindböenRegenrateWindrichtungHelligkeitSolarstrahlungUV-IndexSonne?Feinstaub 10µmUhrzeit
04:007,2 °C 93 % 1011,9 hPa 0,0 mm 0,0 mm nein 0,0 km/h 0,0 km/h 0,0 mm/h N 0,000 klux 0,0 W/qm 0,0 nein - 04:00
04:057,2 °C 93 % 1011,9 hPa 0,0 mm 0,0 mm nein 0,0 km/h 0,0 km/h 0,0 mm/h N 0,000 klux 0,0 W/qm 0,0 nein - 04:05
04:107,2 °C 92 % 1011,9 hPa 0,0 mm 0,0 mm nein 0,0 km/h 1,6 km/h 0,0 mm/h OSO 0,000 klux 0,0 W/qm 0,0 nein - 04:10
04:157,2 °C 93 % 1011,8 hPa 0,0 mm 0,0 mm nein 0,0 km/h 1,6 km/h 0,0 mm/h OSO 0,000 klux 0,0 W/qm 0,0 nein - 04:15
04:206,7 °C 93 % 1011,8 hPa 0,0 mm 0,0 mm nein 0,0 km/h 1,6 km/h 0,0 mm/h OSO 0,000 klux 0,0 W/qm 0,0 nein - 04:20
04:256,7 °C 93 % 1011,8 hPa 0,0 mm 0,0 mm nein 0,0 km/h 1,6 km/h 0,0 mm/h OSO 0,000 klux 0,0 W/qm 0,0 nein - 04:25
04:306,7 °C 93 % 1011,7 hPa 0,0 mm 0,0 mm nein 1,6 km/h 3,2 km/h 0,0 mm/h OSO 0,000 klux 0,0 W/qm 0,0 nein - 04:30
04:356,7 °C 93 % 1011,6 hPa 0,0 mm 0,0 mm nein 1,6 km/h 3,2 km/h 0,0 mm/h OSO 0,000 klux 0,0 W/qm 0,0 nein - 04:35
04:406,7 °C 93 % 1011,5 hPa 0,0 mm 0,0 mm nein 1,6 km/h 1,6 km/h 0,0 mm/h OSO 0,000 klux 0,0 W/qm 0,0 nein - 04:40
04:456,7 °C 93 % 1011,5 hPa 0,0 mm 0,0 mm nein 1,6 km/h 1,6 km/h 0,0 mm/h OSO 0,000 klux 0,0 W/qm 0,0 nein - 04:45
04:506,7 °C 93 % 1011,4 hPa 0,0 mm 0,0 mm nein 0,0 km/h 1,6 km/h 0,0 mm/h OSO 0,000 klux 0,0 W/qm 0,0 nein - 04:50
04:556,7 °C 93 % 1011,4 hPa 0,0 mm 0,0 mm nein 0,0 km/h 0,0 km/h 0,0 mm/h N 0,000 klux 0,0 W/qm 0,0 nein - 04:55
05:006,7 °C 93 % 1011,3 hPa 0,0 mm 0,0 mm nein 0,0 km/h 0,0 km/h 0,0 mm/h N 0,000 klux 0,0 W/qm 0,0 nein - 05:00
05:056,7 °C 93 % 1011,3 hPa 0,0 mm 0,0 mm nein 0,0 km/h 0,0 km/h 0,0 mm/h N 0,000 klux 0,0 W/qm 0,0 nein - 05:05
05:106,7 °C 93 % 1011,1 hPa 0,0 mm 0,0 mm nein 0,0 km/h 0,0 km/h 0,0 mm/h N 0,000 klux 0,0 W/qm 0,0 nein - 05:10
05:156,7 °C 93 % 1011,1 hPa 0,0 mm 0,0 mm nein 0,0 km/h 0,0 km/h 0,0 mm/h N 0,000 klux 0,0 W/qm 0,0 nein - 05:15
05:206,7 °C 93 % 1011,1 hPa 0,0 mm 0,0 mm nein 0,0 km/h 0,0 km/h 0,0 mm/h N 0,000 klux 0,0 W/qm 0,0 nein - 05:20
05:256,1 °C 93 % 1011,2 hPa 0,0 mm 0,0 mm nein 0,0 km/h 0,0 km/h 0,0 mm/h N 0,000 klux 0,0 W/qm 0,0 nein - 05:25
05:306,1 °C 93 % 1011,0 hPa 0,0 mm 0,0 mm nein 0,0 km/h 0,0 km/h 0,0 mm/h N 0,000 klux 0,0 W/qm 0,0 nein - 05:30
05:356,1 °C 93 % 1011,0 hPa 0,0 mm 0,0 mm nein 0,0 km/h 0,0 km/h 0,0 mm/h N 0,000 klux 0,0 W/qm 0,0 nein - 05:35
05:406,1 °C 93 % 1010,9 hPa 0,0 mm 0,0 mm nein 0,0 km/h 0,0 km/h 0,0 mm/h N 0,000 klux 0,0 W/qm 0,0 nein - 05:40
05:456,1 °C 93 % 1010,9 hPa 0,0 mm 0,0 mm nein 0,0 km/h 0,0 km/h 0,0 mm/h N 0,000 klux 0,0 W/qm 0,0 nein - 05:45
05:506,1 °C 93 % 1010,8 hPa 0,0 mm 0,0 mm nein 0,0 km/h 0,0 km/h 0,0 mm/h N 0,000 klux 0,0 W/qm 0,0 nein - 05:50
05:556,1 °C 93 % 1010,7 hPa 0,0 mm 0,0 mm nein 0,0 km/h 0,0 km/h 0,0 mm/h N 0,000 klux 0,0 W/qm 0,0 nein - 05:55
UhrzeitTemperaturFeuchteLuftdruckNiederschlagEvapotranspirationNiederschlag?WindWindböenRegenrateWindrichtungHelligkeitSolarstrahlungUV-IndexSonne?Feinstaub 10µmUhrzeit
06:006,1 °C 93 % 1010,7 hPa 0,0 mm 0,0 mm nein 0,0 km/h 0,0 km/h 0,0 mm/h N 0,000 klux 0,0 W/qm 0,0 nein - 06:00
06:055,6 °C 93 % 1010,7 hPa 0,0 mm 0,0 mm nein 0,0 km/h 1,6 km/h 0,0 mm/h OSO 0,000 klux 0,0 W/qm 0,0 nein - 06:05
06:105,6 °C 93 % 1010,6 hPa 0,0 mm 0,0 mm nein 0,0 km/h 1,6 km/h 0,0 mm/h OSO 0,000 klux 0,0 W/qm 0,0 nein - 06:10
06:155,6 °C 93 % 1010,6 hPa 0,0 mm 0,0 mm nein 0,0 km/h 1,6 km/h 0,0 mm/h OSO 0,000 klux 0,0 W/qm 0,0 nein - 06:15
06:205,6 °C 93 % 1010,7 hPa 0,0 mm 0,0 mm nein 0,0 km/h 1,6 km/h 0,0 mm/h OSO 0,000 klux 0,0 W/qm 0,0 nein - 06:20
06:255,6 °C 93 % 1010,7 hPa 0,0 mm 0,0 mm nein 0,0 km/h 0,0 km/h 0,0 mm/h N 0,000 klux 0,0 W/qm 0,0 nein - 06:25
06:305,6 °C 93 % 1010,6 hPa 0,0 mm 0,0 mm nein 0,0 km/h 0,0 km/h 0,0 mm/h N 0,000 klux 0,0 W/qm 0,0 nein - 06:30
06:355,6 °C 93 % 1010,6 hPa 0,0 mm 0,0 mm nein 0,0 km/h 0,0 km/h 0,0 mm/h N 0,000 klux 0,0 W/qm 0,0 nein - 06:35
06:405,6 °C 93 % 1010,5 hPa 0,0 mm 0,0 mm nein 0,0 km/h 0,0 km/h 0,0 mm/h N 0,000 klux 0,0 W/qm 0,0 nein - 06:40
06:455,6 °C 93 % 1010,4 hPa 0,0 mm 0,0 mm nein 0,0 km/h 0,0 km/h 0,0 mm/h N 0,000 klux 0,0 W/qm 0,0 nein - 06:45
06:505,6 °C 93 % 1010,3 hPa 0,0 mm 0,0 mm nein 0,0 km/h 0,0 km/h 0,0 mm/h N 0,000 klux 0,0 W/qm 0,0 nein - 06:50
06:555,6 °C 93 % 1010,2 hPa 0,0 mm 0,0 mm nein 0,0 km/h 0,0 km/h 0,0 mm/h N 0,000 klux 0,0 W/qm 0,0 nein - 06:55
07:005,6 °C 93 % 1010,2 hPa 0,0 mm 0,0 mm nein 0,0 km/h 0,0 km/h 0,0 mm/h N 0,000 klux 0,0 W/qm 0,0 nein - 07:00
07:055,6 °C 93 % 1010,2 hPa 0,0 mm 0,0 mm nein 0,0 km/h 1,6 km/h 0,0 mm/h OSO 0,000 klux 0,0 W/qm 0,0 nein - 07:05
07:105,0 °C 93 % 1010,3 hPa 0,0 mm 0,0 mm nein 0,0 km/h 1,6 km/h 0,0 mm/h OSO 0,000 klux 0,0 W/qm 0,0 nein - 07:10
07:155,0 °C 93 % 1010,2 hPa 0,0 mm 0,0 mm nein 0,0 km/h 0,0 km/h 0,0 mm/h N 0,000 klux 0,0 W/qm 0,0 nein - 07:15
07:205,0 °C 93 % 1010,1 hPa 0,0 mm 0,0 mm nein 0,0 km/h 0,0 km/h 0,0 mm/h N 0,503 klux 3,0 W/qm 0,0 nein - 07:20
07:255,0 °C 93 % 1010,1 hPa 0,0 mm 0,0 mm nein 0,0 km/h 0,0 km/h 0,0 mm/h N 1,169 klux 7,0 W/qm 0,0 nein - 07:25
07:305,0 °C 93 % 1010,1 hPa 0,0 mm 0,0 mm nein 0,0 km/h 0,0 km/h 0,0 mm/h N 1,996 klux 12,0 W/qm 0,0 nein - 07:30
07:355,0 °C 93 % 1010,0 hPa 0,0 mm 0,0 mm nein 0,0 km/h 0,0 km/h 0,0 mm/h N 2,485 klux 15,0 W/qm 0,0 nein - 07:35
07:405,0 °C 93 % 1010,0 hPa 0,0 mm 0,0 mm nein 0,0 km/h 0,0 km/h 0,0 mm/h N 3,134 klux 19,0 W/qm 0,0 nein - 07:40
07:455,0 °C 93 % 1010,1 hPa 0,0 mm 0,0 mm nein 0,0 km/h 0,0 km/h 0,0 mm/h N 4,106 klux 25,0 W/qm 0,0 nein - 07:45
07:505,0 °C 93 % 1010,0 hPa 0,0 mm 0,0 mm nein 0,0 km/h 0,0 km/h 0,0 mm/h N 5,397 klux 33,0 W/qm 0,0 nein - 07:50
07:555,0 °C 93 % 1009,9 hPa 0,0 mm 0,0 mm nein 0,0 km/h 0,0 km/h 0,0 mm/h N 6,676 klux 41,0 W/qm 0,0 ja - 07:55
UhrzeitTemperaturFeuchteLuftdruckNiederschlagEvapotranspirationNiederschlag?WindWindböenRegenrateWindrichtungHelligkeitSolarstrahlungUV-IndexSonne?Feinstaub 10µmUhrzeit
08:005,0 °C 93 % 1009,9 hPa 0,0 mm 0,0 mm nein 0,0 km/h 0,0 km/h 0,0 mm/h N 8,594 klux 53,0 W/qm 0,0 ja - 08:00
08:055,0 °C 94 % 1009,9 hPa 0,0 mm 0,0 mm nein 0,0 km/h 0,0 km/h 0,0 mm/h N 10,333 klux 64,0 W/qm 0,0 ja - 08:05
08:105,0 °C 94 % 1009,9 hPa 0,0 mm 0,0 mm nein 0,0 km/h 0,0 km/h 0,0 mm/h N 11,896 klux 74,0 W/qm 0,0 ja - 08:10
08:155,0 °C 94 % 1009,8 hPa 0,0 mm 0,0 mm nein 0,0 km/h 0,0 km/h 0,0 mm/h N 13,927 klux 87,0 W/qm 0,0 ja - 08:15
08:205,6 °C 94 % 1009,7 hPa 0,0 mm 0,0 mm nein 0,0 km/h 0,0 km/h 0,0 mm/h N 15,620 klux 98,0 W/qm 0,0 ja - 08:20
08:255,6 °C 94 % 1009,6 hPa 0,0 mm 0,0 mm nein 0,0 km/h 0,0 km/h 0,0 mm/h N 17,458 klux 110,0 W/qm 0,0 ja - 08:25
08:305,6 °C 94 % 1009,5 hPa 0,0 mm 0,0 mm nein 0,0 km/h 0,0 km/h 0,0 mm/h N 19,280 klux 122,0 W/qm 0,0 ja - 08:30
08:355,6 °C 94 % 1009,6 hPa 0,0 mm 0,0 mm nein 0,0 km/h 0,0 km/h 0,0 mm/h N 21,087 klux 134,0 W/qm 0,0 ja - 08:35
08:406,1 °C 95 % 1009,4 hPa 0,0 mm 0,0 mm nein 0,0 km/h 0,0 km/h 0,0 mm/h N 22,877 klux 146,0 W/qm 0,0 ja - 08:40
08:456,7 °C 95 % 1009,3 hPa 0,0 mm 0,0 mm nein 0,0 km/h 0,0 km/h 0,0 mm/h N 24,965 klux 160,0 W/qm 0,0 ja - 08:45
08:507,2 °C 95 % 1009,1 hPa 0,0 mm 0,0 mm nein 0,0 km/h 0,0 km/h 0,0 mm/h N 27,190 klux 175,0 W/qm 0,0 ja - 08:50
08:557,2 °C 96 % 1009,1 hPa 0,0 mm 0,0 mm nein 1,6 km/h 3,2 km/h 0,0 mm/h OSO 29,706 klux 192,0 W/qm 0,0 ja - 08:55
09:007,2 °C 96 % 1009,0 hPa 0,0 mm 0,1 mm nein 0,0 km/h 3,2 km/h 0,0 mm/h OSO 31,738 klux 206,0 W/qm 0,0 ja - 09:00
09:057,8 °C 96 % 1008,7 hPa 0,0 mm 0,0 mm nein 0,0 km/h 1,6 km/h 0,0 mm/h OSO 34,214 klux 223,0 W/qm 0,1 ja - 09:05
09:108,3 °C 96 % 1008,7 hPa 0,0 mm 0,0 mm nein 0,0 km/h 1,6 km/h 0,0 mm/h OSO 36,975 klux 242,0 W/qm 0,5 ja - 09:10
09:158,9 °C 96 % 1008,5 hPa 0,0 mm 0,0 mm nein 1,6 km/h 3,2 km/h 0,0 mm/h OSO 38,495 klux 253,0 W/qm 0,5 ja - 09:15
09:209,4 °C 97 % 1008,4 hPa 0,0 mm 0,0 mm nein 1,6 km/h 6,4 km/h 0,0 mm/h SO 40,307 klux 266,0 W/qm 0,6 ja - 09:20
09:2510,0 °C 97 % 1008,1 hPa 0,0 mm 0,0 mm nein 4,8 km/h 11,3 km/h 0,0 mm/h SO 42,708 klux 283,0 W/qm 0,6 ja - 09:25
09:3010,6 °C 97 % 1007,9 hPa 0,0 mm 0,0 mm nein 4,8 km/h 12,9 km/h 0,0 mm/h SSO 44,939 klux 299,0 W/qm 0,7 ja - 09:30
09:3510,6 °C 97 % 1007,9 hPa 0,0 mm 0,0 mm nein 4,8 km/h 9,7 km/h 0,0 mm/h SO 46,854 klux 313,0 W/qm 0,7 ja - 09:35
09:4010,6 °C 96 % 1007,8 hPa 0,0 mm 0,0 mm nein 3,2 km/h 11,3 km/h 0,0 mm/h SSO 49,201 klux 330,0 W/qm 0,8 ja - 09:40
09:4511,1 °C 96 % 1007,7 hPa 0,0 mm 0,0 mm nein 4,8 km/h 9,7 km/h 0,0 mm/h SSO 52,273 klux 352,0 W/qm 0,9 ja - 09:45
09:5011,1 °C 96 % 1007,6 hPa 0,0 mm 0,0 mm nein 4,8 km/h 14,5 km/h 0,0 mm/h SO 54,879 klux 371,0 W/qm 0,9 ja - 09:50
09:5511,7 °C 95 % 1007,5 hPa 0,0 mm 0,0 mm nein 4,8 km/h 11,3 km/h 0,0 mm/h O 56,434 klux 383,0 W/qm 1,0 ja - 09:55
UhrzeitTemperaturFeuchteLuftdruckNiederschlagEvapotranspirationNiederschlag?WindWindböenRegenrateWindrichtungHelligkeitSolarstrahlungUV-IndexSonne?Feinstaub 10µmUhrzeit
10:0011,7 °C 95 % 1007,4 hPa 0,0 mm 0,2 mm nein 6,4 km/h 12,9 km/h 0,0 mm/h O 58,566 klux 399,0 W/qm 1,1 ja - 10:00
10:0512,2 °C 93 % 1007,4 hPa 0,0 mm 0,0 mm nein 4,8 km/h 12,9 km/h 0,0 mm/h OSO 61,415 klux 420,0 W/qm 1,1 ja - 10:05
10:1012,2 °C 92 % 1007,4 hPa 0,0 mm 0,0 mm nein 4,8 km/h 11,3 km/h 0,0 mm/h O 63,224 klux 434,0 W/qm 1,2 ja - 10:10
10:1512,8 °C 91 % 1007,2 hPa 0,0 mm 0,0 mm nein 9,7 km/h 14,5 km/h 0,0 mm/h SSO 64,587 klux 445,0 W/qm 1,3 ja - 10:15
10:2012,8 °C 89 % 1007,4 hPa 0,0 mm 0,0 mm nein 6,4 km/h 16,1 km/h 0,0 mm/h SO 64,642 klux 447,0 W/qm 1,3 ja - 10:20
10:2513,3 °C 87 % 1007,2 hPa 0,0 mm 0,0 mm nein 6,4 km/h 12,9 km/h 0,0 mm/h SO 61,096 klux 424,0 W/qm 1,3 ja - 10:25
10:3013,3 °C 86 % 1007,3 hPa 0,0 mm 0,0 mm nein 9,7 km/h 16,1 km/h 0,0 mm/h SSO 59,302 klux 413,0 W/qm 1,4 ja - 10:30
10:3513,3 °C 86 % 1007,3 hPa 0,0 mm 0,0 mm nein 6,4 km/h 12,9 km/h 0,0 mm/h SO 60,098 klux 420,0 W/qm 1,4 ja - 10:35
10:4013,3 °C 85 % 1007,2 hPa 0,0 mm 0,0 mm nein 6,4 km/h 16,1 km/h 0,0 mm/h SO 58,184 klux 408,0 W/qm 1,4 ja - 10:40
10:4513,9 °C 85 % 1007,0 hPa 0,0 mm 0,0 mm nein 6,4 km/h 14,5 km/h 0,0 mm/h SO 60,975 klux 429,0 W/qm 1,5 ja - 10:45
10:5013,9 °C 84 % 1006,9 hPa 0,0 mm 0,0 mm nein 6,4 km/h 16,1 km/h 0,0 mm/h SO 57,378 klux 405,0 W/qm 1,5 ja - 10:50
10:5513,9 °C 84 % 1006,9 hPa 0,0 mm 0,0 mm nein 6,4 km/h 14,5 km/h 0,0 mm/h SO 66,376 klux 470,0 W/qm 1,6 ja - 10:55
11:0013,9 °C 84 % 1006,8 hPa 0,0 mm 0,2 mm nein 6,4 km/h 14,5 km/h 0,0 mm/h SO 67,579 klux 480,0 W/qm 1,7 ja - 11:00
11:0514,4 °C 84 % 1006,7 hPa 0,0 mm 0,0 mm nein 6,4 km/h 11,3 km/h 0,0 mm/h SSO 61,481 klux 438,0 W/qm 1,7 ja - 11:05
11:1014,4 °C 83 % 1006,6 hPa 0,0 mm 0,0 mm nein 8,0 km/h 14,5 km/h 0,0 mm/h SO 56,963 klux 407,0 W/qm 1,6 ja - 11:10
11:1514,4 °C 82 % 1006,5 hPa 0,0 mm 0,0 mm nein 6,4 km/h 14,5 km/h 0,0 mm/h SO 67,130 klux 481,0 W/qm 1,8 ja - 11:15
11:2014,4 °C 81 % 1006,4 hPa 0,0 mm 0,0 mm nein 8,0 km/h 14,5 km/h 0,0 mm/h SSO 72,653 klux 522,0 W/qm 1,9 ja - 11:20
11:2515,0 °C 82 % 1006,2 hPa 0,0 mm 0,0 mm nein 8,0 km/h 14,5 km/h 0,0 mm/h SSO 69,408 klux 500,0 W/qm 1,9 ja - 11:25
11:3015,0 °C 81 % 1006,2 hPa 0,0 mm 0,0 mm nein 6,4 km/h 14,5 km/h 0,0 mm/h SSO 71,171 klux 514,0 W/qm 2,0 ja - 11:30
11:3515,0 °C 80 % 1006,1 hPa 0,0 mm 0,0 mm nein 6,4 km/h 12,9 km/h 0,0 mm/h SO 55,390 klux 401,0 W/qm 1,8 ja - 11:35
11:4015,6 °C 78 % 1005,9 hPa 0,0 mm 0,0 mm nein 9,7 km/h 17,7 km/h 0,0 mm/h SSO 64,219 klux 466,0 W/qm 1,9 ja - 11:40
11:4515,6 °C 78 % 1005,7 hPa 0,0 mm 0,0 mm nein 9,7 km/h 22,5 km/h 0,0 mm/h OSO 65,728 klux 478,0 W/qm 2,0 ja - 11:45
11:5015,6 °C 78 % 1005,7 hPa 0,0 mm 0,0 mm nein 9,7 km/h 20,9 km/h 0,0 mm/h SO 67,512 klux 492,0 W/qm 2,1 ja - 11:50
11:5515,6 °C 78 % 1005,6 hPa 0,0 mm 0,0 mm nein 9,7 km/h 20,9 km/h 0,0 mm/h SSO 77,650 klux 567,0 W/qm 2,2 ja - 11:55
UhrzeitTemperaturFeuchteLuftdruckNiederschlagEvapotranspirationNiederschlag?WindWindböenRegenrateWindrichtungHelligkeitSolarstrahlungUV-IndexSonne?Feinstaub 10µmUhrzeit
12:0015,6 °C 78 % 1005,6 hPa 0,0 mm 0,3 mm nein 6,4 km/h 12,9 km/h 0,0 mm/h SSO 76,822 klux 562,0 W/qm 2,2 ja - 12:00
12:0516,1 °C 77 % 1005,6 hPa 0,0 mm 0,0 mm nein 14,5 km/h 19,3 km/h 0,0 mm/h SSO 81,193 klux 595,0 W/qm 2,3 ja - 12:05
12:1016,1 °C 77 % 1005,7 hPa 0,0 mm 0,0 mm nein 8,0 km/h 14,5 km/h 0,0 mm/h SSO 72,480 klux 532,0 W/qm 2,2 ja - 12:10
12:1516,1 °C 76 % 1005,6 hPa 0,0 mm 0,0 mm nein 8,0 km/h 17,7 km/h 0,0 mm/h SSO 71,693 klux 527,0 W/qm 2,2 ja - 12:15
12:2016,7 °C 77 % 1005,5 hPa 0,0 mm 0,0 mm nein 8,0 km/h 16,1 km/h 0,0 mm/h SSO 106,240 klux 782,0 W/qm 2,3 ja - 12:20
12:2516,7 °C 76 % 1005,4 hPa 0,0 mm 0,0 mm nein 8,0 km/h 17,7 km/h 0,0 mm/h SSO 52,784 klux 389,0 W/qm 2,1 ja - 12:25
12:3016,7 °C 78 % 1005,5 hPa 0,0 mm 0,0 mm nein 8,0 km/h 19,3 km/h 0,0 mm/h SSO 86,750 klux 640,0 W/qm 2,6 ja - 12:30
12:3516,7 °C 75 % 1005,4 hPa 0,0 mm 0,0 mm nein 8,0 km/h 17,7 km/h 0,0 mm/h SO 82,335 klux 608,0 W/qm 2,5 ja - 12:35
12:4017,2 °C 77 % 1005,3 hPa 0,0 mm 0,0 mm nein 8,0 km/h 14,5 km/h 0,0 mm/h SO 81,322 klux 601,0 W/qm 2,6 ja - 12:40
12:4517,2 °C 77 % 1005,4 hPa 0,0 mm 0,0 mm nein 8,0 km/h 17,7 km/h 0,0 mm/h S 82,621 klux 611,0 W/qm 2,6 ja - 12:45
12:5017,2 °C 76 % 1005,2 hPa 0,0 mm 0,0 mm nein 8,0 km/h 17,7 km/h 0,0 mm/h S 70,956 klux 525,0 W/qm 2,4 ja - 12:50
12:5517,2 °C 76 % 1005,3 hPa 0,0 mm 0,0 mm nein 9,7 km/h 16,1 km/h 0,0 mm/h SW 67,416 klux 499,0 W/qm 2,4 ja - 12:55
13:0017,2 °C 76 % 1005,3 hPa 0,0 mm 0,3 mm nein 9,7 km/h 20,9 km/h 0,0 mm/h S 81,043 klux 600,0 W/qm 2,6 ja - 13:00
13:0517,2 °C 76 % 1005,3 hPa 0,0 mm 0,0 mm nein 9,7 km/h 20,9 km/h 0,0 mm/h S 86,709 klux 642,0 W/qm 2,7 ja - 13:05
13:1017,2 °C 76 % 1005,2 hPa 0,0 mm 0,0 mm nein 8,0 km/h 17,7 km/h 0,0 mm/h S 90,225 klux 668,0 W/qm 2,8 ja - 13:10
13:1517,2 °C 76 % 1005,1 hPa 0,0 mm 0,0 mm nein 8,0 km/h 17,7 km/h 0,0 mm/h S 87,542 klux 648,0 W/qm 2,8 ja - 13:15
13:2016,7 °C 76 % 1005,3 hPa 0,0 mm 0,0 mm nein 9,7 km/h 19,3 km/h 0,0 mm/h SO 79,058 klux 585,0 W/qm 2,6 ja - 13:20
13:2516,7 °C 76 % 1005,1 hPa 0,0 mm 0,0 mm nein 8,0 km/h 19,3 km/h 0,0 mm/h S 63,277 klux 468,0 W/qm 2,4 ja - 13:25
13:3016,7 °C 77 % 1005,2 hPa 0,0 mm 0,0 mm nein 12,9 km/h 22,5 km/h 0,0 mm/h S 59,258 klux 438,0 W/qm 2,3 ja - 13:30
13:3516,1 °C 78 % 1005,2 hPa 0,0 mm 0,0 mm nein 11,3 km/h 22,5 km/h 0,0 mm/h S 79,478 klux 587,0 W/qm 2,5 ja - 13:35
13:4016,1 °C 78 % 1005,2 hPa 0,0 mm 0,0 mm nein 6,4 km/h 16,1 km/h 0,0 mm/h SSO 75,755 klux 559,0 W/qm 2,4 ja - 13:40
13:4516,1 °C 79 % 1005,1 hPa 0,0 mm 0,0 mm nein 9,7 km/h 22,5 km/h 0,0 mm/h SSO 87,773 klux 647,0 W/qm 2,3 ja - 13:45
13:5016,1 °C 79 % 1005,0 hPa 0,0 mm 0,0 mm nein 11,3 km/h 19,3 km/h 0,0 mm/h S 49,032 klux 361,0 W/qm 2,0 ja - 13:50
13:5515,6 °C 79 % 1005,2 hPa 0,0 mm 0,0 mm nein 8,0 km/h 16,1 km/h 0,0 mm/h SW 38,896 klux 286,0 W/qm 1,8 nein - 13:55
UhrzeitTemperaturFeuchteLuftdruckNiederschlagEvapotranspirationNiederschlag?WindWindböenRegenrateWindrichtungHelligkeitSolarstrahlungUV-IndexSonne?Feinstaub 10µmUhrzeit
14:0015,6 °C 80 % 1005,3 hPa 0,0 mm 0,3 mm nein 9,7 km/h 17,7 km/h 0,0 mm/h SW 32,415 klux 238,0 W/qm 1,7 nein - 14:00
14:0515,0 °C 80 % 1005,4 hPa 0,0 mm 0,0 mm nein 6,4 km/h 16,1 km/h 0,0 mm/h SW 32,330 klux 237,0 W/qm 1,6 nein - 14:05
14:1015,0 °C 80 % 1005,3 hPa 0,0 mm 0,0 mm nein 8,0 km/h 16,1 km/h 0,0 mm/h S 35,391 klux 259,0 W/qm 1,6 nein - 14:10
14:1515,0 °C 80 % 1005,4 hPa 0,0 mm 0,0 mm nein 8,0 km/h 16,1 km/h 0,0 mm/h S 49,419 klux 361,0 W/qm 1,7 ja - 14:15
14:2015,0 °C 80 % 1005,4 hPa 0,0 mm 0,0 mm nein 9,7 km/h 16,1 km/h 0,0 mm/h SSO 43,618 klux 318,0 W/qm 1,5 ja - 14:20
14:2515,0 °C 80 % 1005,4 hPa 0,0 mm 0,0 mm nein 6,4 km/h 14,5 km/h 0,0 mm/h SSO 40,272 klux 293,0 W/qm 1,5 nein - 14:25
14:3015,0 °C 80 % 1005,3 hPa 0,0 mm 0,0 mm nein 9,7 km/h 14,5 km/h 0,0 mm/h SSO 34,161 klux 248,0 W/qm 1,3 nein - 14:30
14:3515,0 °C 80 % 1005,2 hPa 0,0 mm 0,0 mm nein 6,4 km/h 12,9 km/h 0,0 mm/h SO 43,214 klux 313,0 W/qm 1,4 ja - 14:35
14:4015,0 °C 80 % 1005,1 hPa 0,0 mm 0,0 mm nein 6,4 km/h 14,5 km/h 0,0 mm/h SSO 48,024 klux 347,0 W/qm 1,6 ja - 14:40
14:4515,0 °C 81 % 1005,0 hPa 0,0 mm 0,0 mm nein 8,0 km/h 16,1 km/h 0,0 mm/h SO 58,134 klux 419,0 W/qm 1,7 ja - 14:45
14:5015,0 °C 81 % 1005,0 hPa 0,0 mm 0,0 mm nein 6,4 km/h 12,9 km/h 0,0 mm/h S 71,362 klux 513,0 W/qm 1,8 ja - 14:50
14:5515,0 °C 80 % 1005,1 hPa 0,0 mm 0,0 mm nein 4,8 km/h 11,3 km/h 0,0 mm/h SSO 80,204 klux 575,0 W/qm 1,9 ja - 14:55
15:0015,0 °C 81 % 1005,0 hPa 0,0 mm 0,2 mm nein 4,8 km/h 11,3 km/h 0,0 mm/h SSO 81,688 klux 584,0 W/qm 1,9 ja - 15:00
15:0515,0 °C 80 % 1005,0 hPa 0,0 mm 0,0 mm nein 6,4 km/h 14,5 km/h 0,0 mm/h SSO 78,980 klux 563,0 W/qm 1,8 ja - 15:05
15:1015,0 °C 81 % 1004,9 hPa 0,0 mm 0,0 mm nein 6,4 km/h 12,9 km/h 0,0 mm/h S 75,980 klux 540,0 W/qm 1,8 ja - 15:10
15:1515,0 °C 80 % 1004,9 hPa 0,0 mm 0,0 mm nein 8,0 km/h 14,5 km/h 0,0 mm/h SSO 75,085 klux 532,0 W/qm 1,7 ja - 15:15
15:2015,0 °C 81 % 1004,9 hPa 0,0 mm 0,0 mm nein 6,4 km/h 14,5 km/h 0,0 mm/h S 71,358 klux 504,0 W/qm 1,6 ja - 15:20
15:2515,0 °C 80 % 1004,8 hPa 0,0 mm 0,0 mm nein 4,8 km/h 9,7 km/h 0,0 mm/h S 70,169 klux 494,0 W/qm 1,6 ja - 15:25
15:3015,0 °C 81 % 1004,8 hPa 0,0 mm 0,0 mm nein 4,8 km/h 9,7 km/h 0,0 mm/h SSW 67,836 klux 476,0 W/qm 1,5 ja - 15:30
15:3515,0 °C 81 % 1004,8 hPa 0,0 mm 0,0 mm nein 3,2 km/h 11,3 km/h 0,0 mm/h SSO 67,351 klux 471,0 W/qm 1,5 ja - 15:35
15:4015,0 °C 81 % 1004,7 hPa 0,0 mm 0,0 mm nein 4,8 km/h 11,3 km/h 0,0 mm/h SO 60,839 klux 424,0 W/qm 1,4 ja - 15:40
15:4515,0 °C 80 % 1004,7 hPa 0,0 mm 0,0 mm nein 6,4 km/h 12,9 km/h 0,0 mm/h S 55,150 klux 383,0 W/qm 1,3 ja - 15:45
15:5015,0 °C 81 % 1004,7 hPa 0,0 mm 0,0 mm nein 3,2 km/h 9,7 km/h 0,0 mm/h S 63,006 klux 436,0 W/qm 1,3 ja - 15:50
15:5515,0 °C 81 % 1004,7 hPa 0,0 mm 0,0 mm nein 3,2 km/h 8,0 km/h 0,0 mm/h S 58,014 klux 400,0 W/qm 1,2 ja - 15:55
UhrzeitTemperaturFeuchteLuftdruckNiederschlagEvapotranspirationNiederschlag?WindWindböenRegenrateWindrichtungHelligkeitSolarstrahlungUV-IndexSonne?Feinstaub 10µmUhrzeit
16:0015,0 °C 81 % 1004,8 hPa 0,0 mm 0,3 mm nein 4,8 km/h 11,3 km/h 0,0 mm/h S 56,628 klux 389,0 W/qm 1,2 ja - 16:00
16:0515,0 °C 81 % 1004,9 hPa 0,0 mm 0,0 mm nein 6,4 km/h 12,9 km/h 0,0 mm/h SSO 53,772 klux 368,0 W/qm 1,1 ja - 16:05
16:1015,0 °C 81 % 1004,9 hPa 0,0 mm 0,0 mm nein 3,2 km/h 11,3 km/h 0,0 mm/h S 51,776 klux 353,0 W/qm 1,0 ja - 16:10
16:1515,0 °C 81 % 1004,8 hPa 0,0 mm 0,0 mm nein 3,2 km/h 9,7 km/h 0,0 mm/h SO 51,975 klux 353,0 W/qm 1,0 ja - 16:15
16:2015,0 °C 81 % 1004,8 hPa 0,0 mm 0,0 mm nein 3,2 km/h 8,0 km/h 0,0 mm/h S 49,664 klux 336,0 W/qm 0,9 ja - 16:20
16:2515,0 °C 81 % 1004,7 hPa 0,0 mm 0,0 mm nein 3,2 km/h 12,9 km/h 0,0 mm/h SSW 37,988 klux 256,0 W/qm 0,8 ja - 16:25
16:3015,0 °C 81 % 1004,7 hPa 0,0 mm 0,0 mm nein 3,2 km/h 6,4 km/h 0,0 mm/h S 40,821 klux 274,0 W/qm 0,8 ja - 16:30
16:3515,0 °C 81 % 1004,7 hPa 0,0 mm 0,0 mm nein 6,4 km/h 12,9 km/h 0,0 mm/h SSO 39,638 klux 265,0 W/qm 0,7 ja - 16:35
16:4015,0 °C 81 % 1004,8 hPa 0,0 mm 0,0 mm nein 4,8 km/h 9,7 km/h 0,0 mm/h SSO 43,253 klux 288,0 W/qm 0,7 ja - 16:40
Gesamt: 10,4 °C 88 % 1009,0 hPa 0,0 mm 1,8 mm nein 3,3 km/h 7,2 km/h 0,0 mm/h 0 29,554 klux 209,6 W/qm 0,7 ja nan µg/m³

Insgesamt 201 Zeilen mal 15 Spalten = 3015 Werte werden angezeigt.

www.wetter-rosstal.de   •   www.wetter-franken.de   •   www.lightningmaps.org   •   Start   •   Kontakt / Datenschutz   •   PC-Kümmerer